Hyannis, MA

12:38 AM EST on February 25, 2017 (GMT -0500)
Barnstable Municipal-Boardman-Polando Field

Weather History for KHYA - May, 2013

Change the Weather History Date:

Monday, May 27, 2013

  Actual Average Record
Temperature  
Mean Temperature 58 °F -  
Max Temperature 70 °F 64 °F 83 °F (1965)
Min Temperature 46 °F 48 °F 32 °F (1968)
Degree Days  
Heating Degree Days 8    
Growing Degree Days 8 (Base 50)    
Moisture  
Dew Point 41 °F    
Average Humidity 56    
Maximum Humidity 80    
Minimum Humidity 29    
Precipitation  
Precipitation 0.00 in - - ()
Sea Level Pressure  
Sea Level Pressure 30.11 in    
Wind  
Wind Speed 8 mph (WSW)    
Max Wind Speed 16 mph    
Max Gust Speed 22 mph    
Visibility 10 miles    
Events      
Averages and records for this station are not official NWS values.
T = Trace of Precipitation, MM = Missing Value Source: NWS Daily Summary

Daily Weather History Graph

Daily Weather History Graph

Search for Another Location

Airport or City:

Trip Planner

Search our weather history database for the weather conditions in past years. The results will help you decide how hot, cold, wet, or windy it might be!

Date:

Astronomy

May. 27, 2013 Rise Set
Actual Time 5:11 AM EDT 8:05 PM EDT
Civil Twilight 4:38 AM EDT 8:38 PM EDT
Nautical Twilight 3:57 AM EDT 9:20 PM EDT
Astronomical Twilight 3:08 AM EDT 10:08 PM EDT
Moon 10:41 PM EDT (5/27) 7:45 AM EDT (5/27)
Length of Visible Light 15h 59m
Length of Day
14h 53m
Waning Gibbous, 91% of the Moon is Illuminated
May 27
Waning Gibbous
May 31
Last Quarter
Jun 8
New
Jun 16
First Quarter
Jun 23
Full

Hourly Weather History & Observations

Time (EDT) Temp. Dew Point Humidity Pressure Visibility Wind Dir Wind Speed Gust Speed Precip Events Conditions
12:56 AM 48.9 °F 37.9 °F 66% 30.08 in 10.0 mi West 4.6 mph - N/A   Clear
1:56 AM 48.0 °F 37.0 °F 66% 30.09 in 10.0 mi WNW 9.2 mph - N/A   Clear
2:56 AM 48.0 °F 39.0 °F 71% 30.10 in 10.0 mi West 6.9 mph - N/A   Clear
3:56 AM 48.0 °F 39.9 °F 74% 30.10 in 10.0 mi West 11.5 mph - N/A   Clear
4:56 AM 46.9 °F 41.0 °F 80% 30.11 in 10.0 mi WSW 6.9 mph - N/A   Clear
5:56 AM 50.0 °F 42.1 °F 74% 30.12 in 10.0 mi West 4.6 mph - N/A   Clear
6:56 AM 53.1 °F 39.9 °F 61% 30.12 in 10.0 mi West 8.1 mph - N/A   Clear
7:56 AM 57.0 °F 39.9 °F 53% 30.12 in 10.0 mi WNW 9.2 mph - N/A   Clear
8:56 AM 60.1 °F 39.9 °F 47% 30.13 in 10.0 mi WNW 9.2 mph - N/A   Clear
9:56 AM 63.0 °F 39.9 °F 43% 30.12 in 10.0 mi WNW 11.5 mph - N/A   Clear
10:56 AM 66.0 °F 39.9 °F 38% 30.12 in 10.0 mi WSW 12.7 mph 19.6 mph N/A   Clear
11:56 AM 69.1 °F 35.1 °F 29% 30.10 in 10.0 mi WNW 6.9 mph 20.7 mph N/A   Scattered Clouds
12:56 PM 68.0 °F 37.0 °F 32% 30.10 in 10.0 mi North 6.9 mph 16.1 mph N/A   Partly Cloudy
1:56 PM 66.9 °F 34.0 °F 30% 30.10 in 10.0 mi South 8.1 mph - N/A   Clear
2:56 PM 66.9 °F 44.1 °F 44% 30.09 in 10.0 mi SSW 11.5 mph 17.3 mph N/A   Partly Cloudy
3:56 PM 66.9 °F 45.0 °F 45% 30.08 in 10.0 mi SSW 13.8 mph - N/A   Clear
4:56 PM 66.0 °F 45.0 °F 47% 30.09 in 10.0 mi SW 13.8 mph 21.9 mph N/A   Clear
5:56 PM 63.0 °F 44.1 °F 50% 30.09 in 10.0 mi SW 16.1 mph - N/A   Clear
6:56 PM 61.0 °F 45.0 °F 56% 30.10 in 10.0 mi SW 12.7 mph - N/A   Clear
7:56 PM 57.9 °F 45.0 °F 62% 30.12 in 10.0 mi SW 9.2 mph - N/A   Clear
8:56 PM 57.0 °F 44.1 °F 62% 30.13 in 10.0 mi WSW 8.1 mph - N/A   Clear
9:56 PM 55.9 °F 45.0 °F 67% 30.14 in 10.0 mi West 8.1 mph - N/A   Clear
10:56 PM 54.0 °F 45.0 °F 72% 30.16 in 10.0 mi WSW 4.6 mph - N/A   Clear
11:56 PM 54.0 °F 46.0 °F 75% 30.17 in 10.0 mi Calm Calm - N/A   Clear